Total_Precipitation_Accumulation
0.33 0.27 0.36 0.43 0.39 0.42 0.57 0.55 0.48 0.29 0.26 0.25 0.24 0.25 0.26 0.28 0.27 0.27 0.27 0.31 0.36 0.42 0.43 0.44 0.45 0.46 0.48 0.53 0.63 0.69 0.69 0.79 0.84 0.92 1.00 0.96 0.91 0.94 1.02 1.15 1.22 1.26 1.25 1.18
0.34 0.21 0.27 0.34 0.28 0.29 0.32 0.28 0.26 0.20 0.23 0.24 0.23 0.21 0.22 0.23 0.25 0.27 0.27 0.28 0.31 0.35 0.41 0.47 0.50 0.51 0.54 0.57 0.62 0.69 0.69 0.75 0.78 0.87 0.97 1.01 0.93 0.93 1.03 1.13 1.16 1.18 1.20 1.19
0.62 0.27 0.48 0.54 0.33 0.29 0.31 0.29 0.25 0.29 0.30 0.25 0.22 0.22 0.25 0.25 0.25 0.27 0.26 0.25 0.25 0.31 0.40 0.45 0.49 0.49 0.56 0.60 0.63 0.68 0.70 0.72 0.77 0.86 0.90 0.96 0.97 0.98 1.06 1.15 1.16 1.14 1.13 1.13
0.99 0.71 0.97 0.51 0.25 0.24 0.29 0.31 0.28 0.26 0.22 0.21 0.24 0.26 0.29 0.27 0.28 0.28 0.28 0.30 0.28 0.33 0.40 0.41 0.45 0.43 0.48 0.53 0.64 0.71 0.72 0.70 0.75 0.82 0.85 0.94 0.98 1.00 1.10 1.18 1.14 1.13 1.12 1.09
1.35 0.97 0.51 0.29 0.26 0.34 0.43 0.43 0.31 0.23 0.17 0.16 0.19 0.24 0.31 0.26 0.26 0.30 0.31 0.34 0.33 0.35 0.40 0.37 0.40 0.41 0.40 0.44 0.57 0.69 0.74 0.69 0.70 0.77 0.84 0.92 0.97 1.03 1.11 1.19 1.14 1.10 1.08 1.10
1.46 1.08 0.53 0.35 0.23 0.27 0.39 0.55 0.32 0.23 0.20 0.19 0.23 0.35 0.35 0.29 0.27 0.28 0.28 0.31 0.35 0.35 0.36 0.35 0.37 0.39 0.37 0.41 0.49 0.62 0.70 0.63 0.66 0.72 0.77 0.87 0.93 1.01 1.07 1.08 1.07 1.09 1.05 1.04
1.21 0.96 0.41 0.27 0.24 0.29 0.61 0.68 0.35 0.28 0.27 0.27 0.33 0.37 0.32 0.30 0.31 0.32 0.33 0.31 0.32 0.34 0.36 0.37 0.38 0.38 0.39 0.42 0.46 0.55 0.66 0.62 0.66 0.69 0.73 0.82 0.90 0.93 0.99 1.04 1.03 1.07 1.05 1.02
0.92 1.00 0.52 0.30 0.35 0.61 0.70 0.38 0.30 0.28 0.27 0.28 0.28 0.25 0.24 0.27 0.32 0.39 0.38 0.33 0.34 0.34 0.34 0.35 0.36 0.39 0.41 0.44 0.46 0.52 0.60 0.62 0.67 0.72 0.74 0.78 0.84 0.85 0.89 0.99 1.03 1.04 1.06 1.09
0.80 0.66 0.44 0.37 0.46 0.50 0.41 0.34 0.27 0.27 0.27 0.27 0.25 0.24 0.26 0.29 0.33 0.39 0.41 0.36 0.35 0.36 0.33 0.33 0.35 0.41 0.46 0.48 0.48 0.54 0.58 0.60 0.67 0.75 0.79 0.80 0.79 0.81 0.86 0.93 1.01 1.04 1.04 1.04
0.53 0.39 0.30 0.29 0.29 0.29 0.26 0.27 0.26 0.26 0.27 0.26 0.26 0.24 0.26 0.29 0.32 0.35 0.38 0.39 0.39 0.39 0.37 0.35 0.35 0.40 0.48 0.52 0.50 0.54 0.58 0.58 0.64 0.70 0.76 0.79 0.75 0.73 0.77 0.87 0.99 1.01 1.00 0.95
0.40 0.27 0.25 0.23 0.23 0.22 0.20 0.19 0.19 0.20 0.20 0.22 0.23 0.23 0.26 0.29 0.32 0.36 0.38 0.40 0.41 0.42 0.42 0.40 0.38 0.41 0.48 0.53 0.51 0.54 0.53 0.52 0.57 0.60 0.71 0.81 0.80 0.75 0.74 0.76 0.93 1.03 0.99 0.95
0.35 0.25 0.30 0.26 0.22 0.21 0.21 0.20 0.20 0.21 0.19 0.17 0.20 0.23 0.24 0.26 0.29 0.37 0.42 0.42 0.42 0.42 0.43 0.45 0.44 0.46 0.49 0.52 0.50 0.50 0.51 0.50 0.53 0.56 0.63 0.74 0.78 0.80 0.87 0.86 0.89 0.90 0.90 0.95
0.26 0.20 0.21 0.21 0.20 0.20 0.21 0.20 0.19 0.20 0.21 0.19 0.18 0.20 0.22 0.24 0.27 0.34 0.39 0.41 0.44 0.46 0.46 0.47 0.48 0.51 0.53 0.51 0.52 0.52 0.52 0.52 0.54 0.57 0.61 0.68 0.71 0.72 0.83 0.93 0.96 0.91 0.86 0.89
0.16 0.16 0.16 0.15 0.17 0.18 0.19 0.18 0.16 0.16 0.18 0.18 0.17 0.17 0.18 0.21 0.24 0.32 0.41 0.44 0.44 0.43 0.44 0.46 0.48 0.54 0.59 0.59 0.57 0.55 0.53 0.58 0.61 0.59 0.62 0.68 0.68 0.66 0.70 0.78 0.86 0.90 0.92 0.91
0.12 0.15 0.16 0.14 0.15 0.17 0.19 0.18 0.16 0.16 0.17 0.17 0.16 0.17 0.18 0.21 0.26 0.35 0.43 0.43 0.43 0.42 0.44 0.46 0.49 0.56 0.60 0.65 0.64 0.58 0.58 0.61 0.64 0.63 0.65 0.68 0.68 0.67 0.68 0.70 0.74 0.80 0.88 0.95
0.15 0.14 0.14 0.15 0.16 0.18 0.21 0.21 0.20 0.19 0.19 0.19 0.19 0.19 0.19 0.21 0.25 0.31 0.39 0.43 0.45 0.47 0.49 0.49 0.54 0.63 0.67 0.71 0.71 0.66 0.67 0.75 0.75 0.69 0.69 0.73 0.74 0.75 0.74 0.74 0.76 0.78 0.82 0.89
0.19 0.18 0.16 0.17 0.17 0.19 0.23 0.25 0.23 0.21 0.21 0.21 0.21 0.21 0.19 0.20 0.21 0.26 0.33 0.40 0.46 0.50 0.52 0.55 0.60 0.64 0.69 0.75 0.76 0.73 0.73 0.78 0.84 0.76 0.73 0.79 0.84 0.83 0.80 0.81 0.83 0.81 0.79 0.85
0.19 0.20 0.19 0.19 0.19 0.19 0.21 0.24 0.23 0.21 0.21 0.22 0.21 0.19 0.20 0.22 0.24 0.29 0.34 0.38 0.40 0.41 0.47 0.55 0.63 0.67 0.70 0.77 0.81 0.78 0.76 0.78 0.82 0.80 0.78 0.83 0.89 0.89 0.86 0.87 0.87 0.87 0.84 0.88
0.14 0.16 0.16 0.16 0.16 0.17 0.18 0.21 0.21 0.18 0.19 0.20 0.21 0.22 0.24 0.25 0.27 0.30 0.33 0.33 0.36 0.42 0.49 0.56 0.66 0.65 0.67 0.76 0.85 0.81 0.80 0.83 0.86 0.87 0.82 0.90 0.94 0.92 0.91 0.90 0.90 0.88 0.89 0.89
0.13 0.14 0.15 0.16 0.14 0.15 0.17 0.17 0.18 0.17 0.18 0.20 0.23 0.24 0.26 0.27 0.29 0.31 0.32 0.34 0.41 0.52 0.55 0.61 0.63 0.66 0.69 0.72 0.79 0.81 0.86 0.87 0.90 0.91 0.89 0.89 0.92 0.97 0.95 0.93 0.92 0.92 0.93 0.94
0.15 0.16 0.17 0.17 0.16 0.15 0.17 0.17 0.19 0.19 0.19 0.22 0.26 0.28 0.29 0.28 0.30 0.32 0.35 0.36 0.39 0.48 0.55 0.63 0.67 0.72 0.74 0.78 0.83 0.86 0.92 0.92 0.94 0.97 0.97 0.96 0.96 0.98 0.97 0.97 0.96 0.94 0.93 0.94
0.22 0.21 0.22 0.22 0.20 0.19 0.19 0.19 0.21 0.23 0.23 0.27 0.29 0.30 0.30 0.29 0.30 0.33 0.37 0.42 0.45 0.55 0.61 0.65 0.72 0.84 0.90 0.90 0.84 0.87 0.93 0.94 0.95 0.98 1.00 0.98 0.99 1.02 1.00 0.99 1.01 0.97 0.92 0.93
0.27 0.27 0.28 0.27 0.24 0.23 0.22 0.22 0.24 0.27 0.30 0.31 0.33 0.33 0.34 0.34 0.35 0.39 0.42 0.43 0.48 0.61 0.68 0.74 0.87 0.97 1.01 0.92 0.87 0.89 0.94 0.95 0.96 0.99 1.02 1.01 1.00 1.02 1.02 1.01 1.01 0.98 0.95 0.92
0.31 0.31 0.32 0.31 0.29 0.27 0.27 0.29 0.29 0.32 0.36 0.37 0.38 0.39 0.41 0.40 0.39 0.41 0.46 0.52 0.59 0.69 0.75 0.84 0.94 1.00 1.03 0.95 0.90 0.93 0.96 0.96 0.96 0.99 1.02 1.03 1.05 1.05 1.03 1.02 1.02 0.96 0.91 0.88
0.34 0.34 0.33 0.33 0.34 0.34 0.34 0.34 0.34 0.36 0.39 0.40 0.40 0.40 0.44 0.46 0.48 0.48 0.49 0.54 0.63 0.70 0.75 0.82 0.91 0.97 0.98 0.97 0.94 0.96 0.98 1.00 1.02 1.06 1.06 1.07 1.06 1.06 1.04 0.99 0.97 0.95 0.91 0.87
0.37 0.38 0.38 0.38 0.40 0.41 0.40 0.39 0.41 0.42 0.42 0.43 0.42 0.43 0.46 0.49 0.52 0.53 0.54 0.57 0.63 0.70 0.74 0.78 0.84 0.91 0.95 0.96 0.96 0.97 0.99 1.04 1.07 1.04 1.02 1.03 1.02 1.02 1.00 0.97 0.92 0.89 0.88 0.84
0.43 0.42 0.42 0.43 0.44 0.45 0.46 0.46 0.47 0.49 0.50 0.50 0.50 0.49 0.49 0.52 0.54 0.57 0.58 0.62 0.66 0.71 0.75 0.79 0.84 0.90 0.95 0.98 1.01 1.03 1.02 1.02 1.02 1.02 1.02 1.01 0.98 0.98 0.96 0.94 0.91 0.88 0.86 0.83